Regional Weather Roundup
Issued by NWS

Home | Current Version | Previous Version | Graphics & Text | Print | Product List | Glossary On
Versions: 1 2 3 4 5 6 7 8 9 10 11 12 13 14 15 16 17 18 19 20 21 22 23 24 25 26 27 28 29 30 31 32 33 34 35 36 37 38 39 40 41 42 43 44 45 46 47 48 49 50
000
ASUS43 KLSX 241707
RWRMO

WEATHER SUMMARY FOR MISSOURI
NATIONAL WEATHER SERVICE SPRINGFIELD MO
1200 PM CDT THU JUL 24 2014

NOTE: "FAIR" INDICATES FEW OR NO CLOUDS BELOW 12,000 FEET WITH NO
       SIGNIFICANT WEATHER AND/OR OBSTRUCTIONS TO VISIBILITY.
       CURRENT SKY AND/OR WEATHER CONDITIONS ARE NOT AVAILABLE FOR
       CHILLICOTHE AND FARMINGTON.

MOZ001>031-035>038-043-044-053-054-241800-
...NORTHERN AND WESTERN MISSOURI...

CITY           SKY/WX    TMP DP  RH WIND       PRES   REMARKS
KANSAS CTY INT MOSUNNY   78  59  51 SE13      30.15S
KANSAS C DTWN  SUNNY     80  57  45 SE14      30.13F
LEE`S SUMMIT   SUNNY     78  58  49 SE14G21   30.16F
ST JOSEPH      SUNNY     78  59  51 SE14      30.15S
CHILLICOTHE      N/A     79  59  50 E9        30.18S
KIRKSVILLE     MOSUNNY   75  61  61 CALM      30.19R

$$
MOZ066>068-077>081-088>096-101>105-241800-
...SOUTHWEST MISSOURI...

CITY           SKY/WX    TMP DP  RH WIND       PRES   REMARKS
SPRINGFIELD    SUNNY     79  57  46 SE8       30.15S
JOPLIN         MOSUNNY   83  64  52 E10       30.12F

$$
MOZ032>034-039>042-045>050-055>058-069>072-241800-
...CENTRAL MISSOURI...

CITY           SKY/WX    TMP DP  RH WIND       PRES   REMARKS
COLUMBIA       MOSUNNY   77  58  51 VRB6      30.17F
JEFFERSON CITY MOSUNNY   76  56  49 E8        30.16S
ROLLA          SUNNY     77  53  43 NE10      30.15F
SEDALIA        SUNNY     79  57  46 E10       30.18S
WHITEMAN AFB   SUNNY     78  46  32 SE8       30.16F
OSAGE BEACH    SUNNY     79  54  41 NE9       30.16S

$$
MOZ051-052-059>065-241800-
...EAST CENTRAL MISSOURI...

CITY           SKY/WX    TMP DP  RH WIND       PRES   REMARKS
ST LOUIS INTL  MOSUNNY   76  55  48 VRB6G17   30.15S
SPIRIT OF STL  MOSUNNY   77  55  46 VRB7      30.14F
ST CHARLES     SUNNY     76  57  51 NE7       30.14F

$$
MOZ072>076-082>087-097>100-106>115-241800-
...SOUTH CENTRAL AND SOUTHEAST MISSOURI...

CITY           SKY/WX    TMP DP  RH WIND       PRES   REMARKS
CAPE GIRARDEAU SUNNY     77  60  55 NE10      30.09S HAZE
FARMINGTON     SUNNY     73  46  38 N8        30.17R
POPLAR BLUFF   SUNNY     77  53  43 N9        30.10S
WEST PLAINS    SUNNY     75  54  47 NE8       30.17S

$$


USA.gov is the U.S. government's official web portal to all federal, state and local government web resources and services.